TimePST,TemperatureF,Dew PointF,Humidity,Sea Level PressureIn,VisibilityMPH,Wind Direction,Wind SpeedMPH,Gust SpeedMPH,PrecipitationIn,Events,Conditions,WindDirDegrees,DateUTC
12:15 AM,46.4,42.8,87,30.34,10.0,North,3.5,-,N/A,,Overcast,350,2013-11-14 08:15:00
12:35 AM,46.4,42.8,87,30.33,10.0,North,3.5,-,N/A,,Overcast,360,2013-11-14 08:35:00
12:55 AM,46.4,42.8,87,30.32,10.0,Calm,Calm,-,N/A,,Overcast,0,2013-11-14 08:55:00
1:15 AM,44.6,41.0,87,30.33,7.0,Calm,Calm,-,N/A,,Overcast,0,2013-11-14 09:15:00
1:35 AM,44.6,41.0,87,30.33,7.0,NNW,3.5,-,N/A,,Overcast,340,2013-11-14 09:35:00
1:55 AM,44.6,42.8,93,30.32,10.0,Calm,Calm,-,N/A,,Overcast,0,2013-11-14 09:55:00
2:15 AM,44.6,42.8,93,30.30,9.0,Calm,Calm,-,N/A,,Overcast,0,2013-11-14 10:15:00
2:35 AM,44.6,41.0,87,30.30,6.0,Calm,Calm,-,N/A,,Overcast,0,2013-11-14 10:35:00
2:55 AM,44.6,41.0,87,30.28,7.0,NNE,3.5,-,N/A,,Overcast,20,2013-11-14 10:55:00
3:15 AM,44.6,41.0,87,30.28,7.0,Calm,Calm,-,N/A,,Overcast,0,2013-11-14 11:15:00
3:35 AM,44.6,42.8,93,30.27,10.0,Calm,Calm,-,N/A,,Overcast,0,2013-11-14 11:35:00
3:55 AM,44.6,41.0,87,30.26,10.0,North,3.5,-,N/A,,Overcast,360,2013-11-14 11:55:00
4:15 AM,44.6,41.0,87,30.28,10.0,Calm,Calm,-,N/A,,Overcast,0,2013-11-14 12:15:00
4:35 AM,44.6,41.0,87,30.27,10.0,Calm,Calm,-,N/A,,Overcast,0,2013-11-14 12:35:00
4:55 AM,44.6,42.8,93,30.27,10.0,North,3.5,-,N/A,,Overcast,10,2013-11-14 12:55:00
5:15 AM,46.4,42.8,87,30.28,10.0,North,3.5,-,N/A,,Overcast,350,2013-11-14 13:15:00
5:35 AM,46.4,42.8,87,30.27,10.0,Calm,Calm,-,N/A,,Overcast,0,2013-11-14 13:35:00
5:55 AM,46.4,42.8,87,30.25,10.0,Calm,Calm,-,N/A,,Overcast,0,2013-11-14 13:55:00
6:15 AM,46.4,42.8,87,30.26,10.0,North,3.5,-,N/A,,Overcast,350,2013-11-14 14:15:00
6:35 AM,46.4,41.0,81,30.25,10.0,Calm,Calm,-,N/A,,Overcast,0,2013-11-14 14:35:00
6:55 AM,46.4,42.8,87,30.25,10.0,Calm,Calm,-,N/A,,Overcast,0,2013-11-14 14:55:00
7:15 AM,46.4,41.0,81,30.26,10.0,Calm,Calm,-,N/A,,Overcast,0,2013-11-14 15:15:00
7:35 AM,46.4,41.0,81,30.25,10.0,Calm,Calm,-,N/A,,Overcast,0,2013-11-14 15:35:00
7:55 AM,46.4,41.0,81,30.25,10.0,Calm,Calm,-,N/A,,Overcast,0,2013-11-14 15:55:00
8:15 AM,46.4,41.0,81,30.25,10.0,Calm,Calm,-,N/A,,Overcast,0,2013-11-14 16:15:00
8:35 AM,46.4,41.0,81,30.25,10.0,Calm,Calm,-,N/A,,Overcast,0,2013-11-14 16:35:00
8:55 AM,46.4,42.8,87,30.24,4.0,Calm,Calm,-,N/A,,Overcast,0,2013-11-14 16:55:00
9:15 AM,46.4,42.8,87,30.24,5.0,Calm,Calm,-,N/A,,Overcast,0,2013-11-14 17:15:00
9:35 AM,46.4,42.8,87,30.24,2.5,Calm,Calm,-,N/A,,Overcast,0,2013-11-14 17:35:00
9:55 AM,46.4,42.8,87,30.24,1.8,Calm,Calm,-,N/A,,Overcast,0,2013-11-14 17:55:00
10:15 AM,46.4,44.6,93,30.24,10.0,Calm,Calm,-,N/A,,Overcast,0,2013-11-14 18:15:00
10:35 AM,48.2,44.6,87,30.23,7.0,Calm,Calm,-,N/A,,Overcast,0,2013-11-14 18:35:00
10:55 AM,48.2,44.6,87,30.23,10.0,Calm,Calm,-,N/A,,Overcast,0,2013-11-14 18:55:00
11:15 AM,48.2,44.6,87,30.22,10.0,Calm,Calm,-,N/A,,Overcast,0,2013-11-14 19:15:00
11:35 AM,48.2,44.6,87,30.21,10.0,Calm,Calm,-,N/A,,Overcast,0,2013-11-14 19:35:00
11:55 AM,48.2,44.6,87,30.20,10.0,SE,3.5,-,N/A,,Overcast,140,2013-11-14 19:55:00
12:15 PM,48.2,44.6,87,30.20,10.0,Calm,Calm,-,N/A,,Mostly Cloudy,0,2013-11-14 20:15:00
12:35 PM,48.2,44.6,87,30.19,10.0,Calm,Calm,-,N/A,,Overcast,0,2013-11-14 20:35:00
12:55 PM,50.0,44.6,82,30.18,10.0,Calm,Calm,-,N/A,,Overcast,0,2013-11-14 20:55:00
1:15 PM,50.0,42.8,76,30.18,10.0,Calm,Calm,-,N/A,,Overcast,0,2013-11-14 21:15:00
1:35 PM,50.0,44.6,82,30.18,4.0,Calm,Calm,-,0.01,,Overcast,0,2013-11-14 21:35:00
1:55 PM,50.0,44.6,82,30.17,10.0,Calm,Calm,-,0.01,,Mostly Cloudy,0,2013-11-14 21:55:00
2:15 PM,50.0,44.6,82,30.17,9.0,Calm,Calm,-,0.01,,Overcast,0,2013-11-14 22:15:00
2:35 PM,48.2,44.6,87,30.16,10.0,Calm,Calm,-,0.01,,Overcast,0,2013-11-14 22:35:00
2:55 PM,48.2,44.6,87,30.16,7.0,Calm,Calm,-,0.02,,Overcast,0,2013-11-14 22:55:00
3:15 PM,48.2,44.6,87,30.16,10.0,Calm,Calm,-,0.01,,Overcast,0,2013-11-14 23:15:00
3:35 PM,48.2,44.6,87,30.16,10.0,Calm,Calm,-,0.01,,Overcast,0,2013-11-14 23:35:00
3:55 PM,48.2,44.6,87,30.16,10.0,Calm,Calm,-,0.01,,Overcast,0,2013-11-14 23:55:00
4:15 PM,48.2,44.6,87,30.16,10.0,Calm,Calm,-,N/A,,Mostly Cloudy,0,2013-11-15 00:15:00
4:35 PM,48.2,44.6,87,30.16,10.0,Calm,Calm,-,N/A,,Mostly Cloudy,0,2013-11-15 00:35:00
4:55 PM,48.2,44.6,87,30.15,10.0,Calm,Calm,-,N/A,,Overcast,0,2013-11-15 00:55:00
5:15 PM,48.2,44.6,87,30.16,10.0,Calm,Calm,-,N/A,,Overcast,0,2013-11-15 01:15:00
5:35 PM,48.2,44.6,87,30.15,10.0,Calm,Calm,-,N/A,,Overcast,0,2013-11-15 01:35:00
5:55 PM,48.2,44.6,87,30.15,10.0,Calm,Calm,-,N/A,,Overcast,0,2013-11-15 01:55:00
6:15 PM,46.4,44.6,93,30.15,10.0,Calm,Calm,-,N/A,,Overcast,0,2013-11-15 02:15:00
6:35 PM,46.4,42.8,87,30.15,10.0,Calm,Calm,-,N/A,,Overcast,0,2013-11-15 02:35:00
6:55 PM,46.4,42.8,87,30.15,10.0,Calm,Calm,-,N/A,,Overcast,0,2013-11-15 02:55:00
7:15 PM,46.4,42.8,87,30.15,10.0,Calm,Calm,-,N/A,,Overcast,0,2013-11-15 03:15:00
7:35 PM,46.4,42.8,87,30.15,10.0,North,-9999.0,-,N/A,,Overcast,0,2013-11-15 03:35:00
7:55 PM,46.4,42.8,87,30.15,10.0,North,-9999.0,-,N/A,,Overcast,0,2013-11-15 03:55:00
8:15 PM,46.4,42.8,87,30.15,10.0,North,-9999.0,-,N/A,,Overcast,0,2013-11-15 04:15:00
8:35 PM,46.4,41.0,81,30.14,10.0,North,-9999.0,-,N/A,,Mostly Cloudy,0,2013-11-15 04:35:00
8:55 PM,44.6,39.2,81,30.15,10.0,North,-9999.0,-,N/A,,Partly Cloudy,0,2013-11-15 04:55:00
9:15 PM,42.8,39.2,87,30.15,10.0,North,-9999.0,-,N/A,,Mostly Cloudy,0,2013-11-15 05:15:00
9:35 PM,44.6,41.0,87,30.15,10.0,North,-9999.0,-,N/A,,Overcast,0,2013-11-15 05:35:00
9:55 PM,42.8,39.2,87,30.15,10.0,North,-9999.0,-,N/A,,Overcast,0,2013-11-15 05:55:00
10:15 PM,44.6,41.0,87,30.14,10.0,North,-9999.0,-,N/A,,Overcast,0,2013-11-15 06:15:00
10:35 PM,44.6,41.0,87,30.14,10.0,North,-9999.0,-,N/A,,Overcast,0,2013-11-15 06:35:00
10:55 PM,44.6,41.0,87,30.15,10.0,North,-9999.0,-,N/A,,Overcast,0,2013-11-15 06:55:00
11:15 PM,44.6,41.0,87,30.15,10.0,North,-9999.0,-,N/A,,Overcast,0,2013-11-15 07:15:00
11:35 PM,44.6,39.2,81,30.15,10.0,North,-9999.0,-,N/A,,Overcast,0,2013-11-15 07:35:00
11:55 PM,44.6,39.2,81,30.14,10.0,North,-9999.0,-,N/A,,Overcast,0,2013-11-15 07:55:00